Regional Weather Roundup
Issued by NWS

Home | Current Version | Previous Version | Graphics & Text | Print | Product List | Glossary On
Versions: 1 2 3 4 5 6 7 8 9 10 11 12 13 14 15 16 17 18 19 20 21 22 23 24 25 26 27 28 29 30 31 32 33 34 35 36 37 38 39 40 41 42 43 44 45 46 47 48 49 50
263
ASUS45 KBOU 211307
RWRCO

WEATHER ROUNDUP FOR COLORADO
NATIONAL WEATHER SERVICE DENVER/BOULDER CO
700 AM MDT FRI JUL 21 2017

NOTE: "FAIR" INDICATES FEW OR NO CLOUDS BELOW 12000 FEET WITH NO
SIGNIFICANT WEATHER AND/OR OBSTRUCTIONS TO VISIBILITY.

COZ001>005-013-030-031-211400-
...NORTHWEST COLORADO...

CITY           SKY/WX    TMP DP  RH WIND       PRES   REMARKS
CRAIG          FAIR      63  51  65 VRB3      30.23R
HAYDEN         FAIR      59  45  58 E9        30.25S
MEEKER         FAIR      60  55  83 NE5       30.26R
RABBIT EARS PA FAIR      52  43  71 SW5       30.54R
STEAMBOAT SPGS FAIR      58  49  73 E3        30.29R
WALDEN         FAIR      54  48  82 E6        30.37R
$$

COZ006>008-011-211400-
...WEST CENTRAL VALLEYS...

CITY           SKY/WX    TMP DP  RH WIND       PRES   REMARKS
GRAND JUNCTION FAIR      71  57  61 SE8       30.14S
MONTROSE       FAIR      65  49  56 SE9       30.23R
EAGLE          MOSUNNY   57  50  77 CALM      30.33S
RIFLE          MOCLDY    65  57  75 CALM      30.22R
DELTA          MOCLDY    69  52  55 E5        30.19S
NUCLA          NOT AVBL
$$

COZ017>023-064>068-211400-
...SOUTHWEST COLORADO...

CITY           SKY/WX    TMP DP  RH WIND       PRES   REMARKS
DURANGO        FAIR      58  51  78 NE5       30.30R
CORTEZ         FAIR      60  56  86 CALM      30.24R
PAGOSA SPRINGS FAIR      56  51  82 CALM      30.38R
TELLURIDE      CLOUDY    52  47  85 CALM      30.47S
WOLF CREEK PAS NOT AVBL
$$

COZ009-010-012-014-032>034-037-058>063-211400-
...CENTRAL COLORADO...

CITY           SKY/WX    TMP DP  RH WIND       PRES   REMARKS
ASPEN          FAIR      56  50  80 S5        30.36R
BUENA VISTA    FAIR      55  47  76 W5        30.38S
COPPER MTN     FAIR      54  41  62 NW7       30.67R
BERTHOUD PASS  FAIR      41  28  60 NW18G25   30.68R
COTTONWOOD PAS FAIR      61  41  48 SW6       30.51R
GUNNISON       FAIR      51  47  86 CALM      30.40R
KREMMLING      FAIR      55  50  82 CALM      30.37S
LEADVILLE      FAIR      46  41  82 NE5       30.50R
MONARCH PASS   FAIR      46  41  81 W14       30.77R
SALIDA         FAIR      59  49  69 W3        30.43R
SUNLIGHT       CLOUDY    52  43  71 NW5       30.60S
WILKERSON PASS FAIR      55  36  47 NE3       30.64R
$$

COZ069>075-211400-
...SAN LUIS VALLEY/SANGRE DE CRISTO MOUNTAINS...

CITY           SKY/WX    TMP DP  RH WIND       PRES   REMARKS
ALAMOSA        FAIR      57  51  80 NE3       30.35R
DEL NORTE      FAIR      56  46  67 W12       30.40R
LA VETA PASS   NOT AVBL
SAGUACHE         N/A    N/A N/A N/A MISG        N/A
$$

COZ035-036-038>040-211400-
...NORTHERN COLORADO FRONT RANGE...

CITY           SKY/WX    TMP DP  RH WIND       PRES   REMARKS
DENVER INTL AP FAIR      68  52  56 SW9       30.15R
DMNS CITY PARK   N/A     69  55  59 SE7       30.15S
AURORA         MOSUNNY   64  56  74 SW6       30.18R
FRONT RANGE AP MOSUNNY   68  54  60 S7        30.16S
ERIE MUNI ARPT FAIR      67  53  60 S6        30.13S
BOULDER MUN AP FAIR      68  52  56 S3        30.13S
CENTENNIAL     FAIR      67  53  61 W7        30.19R
BROOMFIELD     FAIR      68  52  56 S8        30.17S
FORT COLLINS   FAIR      68  55  63 S12       30.11S
LONGMONT       FAIR      68  56  64 CALM      30.14R
$$

COZ041-046-047-076>085-087-088-211400-
...PIKES PEAK/PALMER DIVIDE AND SOUTHERN FOOTHILLS...

CITY           SKY/WX    TMP DP  RH WIND       PRES   REMARKS
COLO. SPRINGS  FAIR      72  50  45 N17       30.19R
A. F. ACADEMY  FAIR      65  49  54 NW7       30.22R
SCHRIEVER AFB  FAIR      69  47  45 N12       30.20R
CHEYENNE MTN   FAIR      71  44  37 NW9       30.19R
ELLICOTT       FAIR     N/A N/A N/A N13       30.18R
FALCON           N/A     67  46  45 NW15      30.26R
FORT CARSON    FAIR      69  50  50 NW13      30.15R
LIMON          FAIR      67  56  67 W9        30.14R
MONUMENT HILL  FAIR      61  48  63 W3        30.29R
CANON CITY     SUNNY     72  54  53 W15       30.13R
WALSENBURG     FAIR      75  48  38 W13       30.19R
TRINIDAD       FAIR      67  48  50 W9        30.17R
$$

COZ042>045-048>051-090-091-211400-
...NORTHEAST COLORADO...

CITY           SKY/WX    TMP DP  RH WIND       PRES   REMARKS
GREELEY ARPT   FAIR      69  56  62 SW9       30.10R
AKRON          FAIR      71  54  54 NW7       30.06R
BURLINGTON     FAIR      69  59  70 W5        30.02R
WRAY           NOT AVBL
YUMA           FAIR      70  52  52 W7        30.01R
STERLING       FAIR      66  59  77 SW3       30.01S
HOLYOKE        FAIR      73  59  60 NW10      29.97S
FORT MORGAN    FAIR      68  54  60 W6        30.07R
$$

COZ086-089-092>099-211400-
...SOUTHEAST COLORADO...

CITY           SKY/WX    TMP DP  RH WIND       PRES   REMARKS
PUEBLO         FAIR      71  52  50 S3        30.07R
LA JUNTA       FAIR      71  55  56 W12       30.04R
LAMAR          FAIR      69  57  65 SW3       29.98R
SPRINGFIELD      N/A     68  56  65 SW6       30.06R
$$




USA.gov is the U.S. government's official web portal to all federal, state and local government web resources and services.